Cloud_Cover
100 99 100 35 29 59 100 100 100 99 100 100 100 100 3 0 0 1 4 35 68 95 95 99 79 94 98 71 71 100 100 100 91 97 100 100 100 100 100 100 100 100 99 70
74 100 82 2 39 75 100 100 100 100 100 100 100 52 15 5 5 4 18 27 5 5 98 81 9 8 30 61 75 100 100 100 100 100 100 100 100 100 100 100 100 100 100 94
100 100 30 43 100 100 100 100 100 100 100 86 59 91 94 30 5 5 5 38 29 5 13 5 6 99 19 100 100 100 100 100 100 100 100 100 100 100 100 100 100 100 100 84
100 99 32 39 100 100 100 100 100 100 100 100 100 100 96 100 100 43 23 66 5 13 53 81 97 100 100 100 100 100 100 100 100 100 100 100 100 100 100 100 94 100 98 57
100 100 99 100 100 100 100 100 100 100 100 100 100 100 100 93 61 31 83 5 5 5 53 57 100 100 100 100 100 100 100 100 100 100 100 100 100 99 26 100 100 100 100 100
100 100 100 100 100 100 100 100 100 100 100 100 100 100 10 3 96 98 37 100 39 46 71 100 100 100 100 100 100 100 100 100 100 100 92 68 100 95 93 100 100 100 80 22
97 100 100 100 100 100 100 100 100 100 100 100 100 60 17 64 100 100 100 100 100 100 100 100 100 100 100 100 100 100 100 100 100 100 80 100 100 100 100 100 100 90 67 97
32 100 100 100 100 100 100 100 100 100 100 98 43 96 100 100 100 100 100 100 100 100 100 100 100 100 100 100 100 100 100 100 100 100 100 100 100 100 100 100 100 6 100 100
77 100 100 100 100 100 100 100 100 100 100 100 100 100 100 100 100 100 100 100 100 100 100 100 100 100 100 100 100 100 100 100 100 100 100 100 100 100 100 100 100 5 11 100
99 100 100 100 100 100 100 100 100 100 100 100 100 100 100 100 100 100 100 100 100 100 100 100 100 100 90 97 100 100 100 100 100 100 100 100 100 100 100 100 6 5 5 5
100 100 100 100 100 100 100 100 100 100 100 100 100 98 100 100 100 100 100 100 100 100 100 100 100 100 100 100 100 100 100 100 100 100 100 100 100 100 100 39 5 5 5 23
100 100 100 100 100 100 100 100 100 100 99 100 100 100 100 100 100 100 100 100 100 100 100 100 100 100 100 100 100 100 100 100 100 100 100 100 100 100 59 5 11 5 80 80
100 100 100 100 100 100 100 100 100 100 100 100 100 100 100 100 100 100 100 100 100 94 100 100 100 100 100 100 100 100 100 100 100 100 100 100 100 50 32 85 5 56 100 96
100 100 100 100 100 100 100 100 100 100 100 100 100 100 100 100 100 100 100 100 100 100 100 100 100 100 100 100 100 100 100 100 100 100 100 86 65 99 98 90 5 99 100 100
100 100 100 100 100 100 100 100 100 100 99 100 100 100 100 100 100 100 100 92 100 100 100 100 100 100 100 100 100 100 100 100 100 100 23 14 5 58 100 17 26 84 90 100
100 100 100 100 100 100 100 100 94 100 100 100 100 100 100 100 100 94 100 100 100 100 100 100 100 100 100 100 100 100 100 100 100 95 38 5 5 95 100 17 95 72 93 99
100 100 100 100 100 100 100 100 100 100 100 100 100 100 100 100 99 99 98 99 100 100 100 100 100 100 100 100 100 100 100 100 100 100 18 35 44 47 99 79 84 77 35 100
100 100 100 100 100 100 100 100 100 100 100 100 100 99 100 98 100 100 100 100 100 100 100 100 100 100 100 100 100 100 100 100 100 100 100 11 5 96 92 5 5 5 5 46
100 100 100 100 100 100 100 100 100 100 97 100 100 100 100 96 100 100 100 100 100 100 100 100 93 100 100 100 100 100 100 100 100 100 79 5 5 17 11 5 5 5 5 90
100 100 100 100 100 96 100 100 100 89 100 100 100 96 99 100 89 100 100 100 100 100 100 100 100 100 100 100 100 100 100 100 100 100 5 6 54 5 5 5 5 5 5 5
100 100 100 100 100 100 100 100 100 100 100 100 99 99 100 93 100 100 100 100 100 100 100 100 100 100 100 100 100 100 100 100 100 97 5 5 5 5 5 5 5 5 59 84
100 100 100 100 100 100 100 100 93 100 100 100 100 100 100 100 98 92 84 100 100 100 100 100 100 100 100 100 100 100 100 100 100 5 5 5 5 5 5 5 14 33 81 98
100 100 100 100 78 88 22 52 100 100 100 100 100 100 100 100 100 100 100 95 100 100 98 100 100 100 100 100 100 100 100 100 42 5 5 5 5 5 5 5 76 100 99 100
100 100 100 100 72 100 88 100 100 100 100 100 100 100 100 100 98 100 98 98 100 98 100 100 99 100 100 100 100 100 100 100 11 5 5 5 5 5 5 5 60 81 98 100
100 100 100 100 100 100 100 100 100 100 100 100 100 100 100 100 98 98 100 100 100 100 100 100 100 100 100 100 100 100 100 98 6 5 5 5 5 5 25 28 21 85 100 100
97 78 100 100 100 100 100 100 100 100 100 99 100 100 100 100 100 100 100 100 100 100 100 100 100 100 100 100 100 100 100 74 17 5 5 5 35 24 52 9 19 34 29 90
80 96 100 100 100 100 100 100 100 100 100 100 100 100 100 100 100 100 100 100 100 100 100 100 100 100 100 100 100 100 98 28 5 5 5 50 42 81 86 86 82 84 70 22